COSMOS 252 DEB, 19294

Orbit data source: Space-Track

COSMOS 252 DEB, 19294 is space debris in LEO originally from a launch on Fri, 01 Nov 1968 UTC launched from the Tyuratam Missile And Space Complex (TTMTR). Debris objects in space refer to the collection of defunct objects orbiting the Earth. Examples of debris include non-operational satellites, rocket bodies, and fragments generated from explosions, collisions, or faulty payload assembly.

Loading next visibility...
Identifier
19294, 1968-097EE
Orbit
LEO
Country
Flag of CISCIS
Related business
Manufacturer
Unknown
Mission
Spacecraft
Bus & Motor
Unknown
Mass
Unknown
Launch date (UTC)
1968-11-01 (58 years ago)
Launch vehicle
Unknown
Launch site
Tyuratam Missile And Space Complex (TTMTR)
Object type
Payload
Rocket body
Debris
Shape & HBR
Unknown shape, 0.1 m
Radar Cross Section
Medium (>0.1 m² and <1 m²)

Expand to show TLE details & history
Last TLE update: 2 days ago

TLE from 2 days ago
0 COSMOS 252 DEB
1 19294U 68097EE  26173.42765292  .00001131  00000-0  12501-2 0  9998
2 19294  62.2397 318.4673 0617441 320.0560  35.6514 13.14179258805960
Epoch: 2026-06-22T10:15Z
TLE epoch observation values (Epoch: 2026-06-22T10:15:49.212Z)
Latitude
-0.00001°
Longitude
-106.10148°
Altitude
838.716 km
Speed
7.613 km/s
True Right ascension
21h 13m 52s
True Declination
0° 00' 00"
Sunlit
Object was in full shadow at epoch
Visualization orbit readout
Latitude
Unknown
Longitude
Unknown
Altitude
Unknown
Speed
Unknown
Apparent Right ascension
Unknown
Apparent Declination
Unknown
Sunlit
N/A
Visualization observer readout
Local Sidereal Time
17:53:37
Azimuth
Unknown
Elevation
Unknown
Doppler factor
Unknown
Orbital elements
Apogee altitude
1,674.297 km
Perigee altitude
737.743 km
Semi-major axis
7,584.157 km
Eccentricity
0.06174
Inclination
62.2397°
RAAN
318.4673°
Arg. of periapsis
320.056°
True anomaly
40.04607°
Mean anomaly
35.6514°
Eccentric anomaly
37.82068°
Mean motion
3.28611 °/min
Orbital period
109.55 mins
BSTAR
0.0012501

Documentation

Showing up to 5 results
|